Theta_e
363 363 363 362 361 359 358 358 357 357 355 354 353 352 351 350 348 346 344 343 342 342 341 341 342 342 341 340 341 340 340 340 339 338 339 339 338 337 337 337 337 337
363 363 363 362 361 360 360 359 357 357 355 355 353 351 350 350 347 345 343 342 342 341 341 341 342 342 340 339 340 340 340 339 338 338 338 338 338 337 337 336 336 336
364 364 363 362 361 361 360 359 358 356 355 355 353 350 349 348 346 345 343 342 342 341 341 342 342 342 340 339 340 340 340 339 338 337 338 338 338 337 336 336 335 335
364 364 364 363 361 361 360 358 357 356 354 354 352 349 347 346 345 344 343 342 342 342 341 341 341 341 341 340 341 340 340 340 339 338 338 338 338 337 336 335 335 335
365 365 364 363 362 361 359 358 357 355 354 353 351 348 347 346 345 343 343 343 342 341 341 341 341 341 341 341 341 341 341 340 339 338 338 338 337 336 336 335 335 335
366 365 364 363 362 360 359 357 356 355 353 352 350 348 347 346 344 343 342 342 341 340 341 341 341 341 340 341 341 341 341 339 338 338 338 337 336 336 335 334 335 335
366 365 363 362 361 359 358 357 356 354 352 351 350 347 346 345 343 342 341 342 341 338 337 340 341 339 338 339 340 341 340 339 338 338 338 337 336 336 335 335 335 335
365 365 363 362 361 359 358 357 355 353 351 351 349 347 345 344 343 342 342 341 339 336 336 338 340 338 335 337 339 340 339 338 337 337 337 337 336 336 336 335 335 336
365 364 363 361 360 358 356 356 355 353 351 350 349 347 343 340 340 341 340 338 337 338 338 335 335 334 332 335 339 339 339 337 337 337 337 336 336 336 336 335 335 336
365 364 362 361 359 357 355 355 354 353 351 349 349 346 340 336 338 339 337 335 336 339 337 332 332 331 329 333 339 339 338 338 337 337 337 337 336 336 335 335 335 336
365 364 362 360 359 356 354 354 354 353 351 349 348 345 340 338 337 337 336 333 332 333 332 331 333 329 326 333 339 339 337 337 337 337 337 337 337 336 336 335 334 334
365 363 361 360 359 356 354 354 353 352 351 349 347 344 340 338 335 335 334 330 326 329 331 333 332 327 326 331 338 339 336 334 335 337 338 337 337 336 336 335 335 334
365 363 361 360 359 357 354 353 352 351 350 348 347 344 340 338 335 334 332 327 324 327 330 332 330 327 327 330 335 338 335 334 336 338 338 337 337 336 335 334 334 333
366 364 362 360 359 356 354 353 352 350 348 347 346 342 338 337 333 330 327 326 326 327 329 332 330 326 326 328 331 335 337 338 339 339 338 338 337 336 334 334 333 332
366 364 361 359 358 355 353 353 351 348 347 347 346 342 337 335 330 324 323 326 329 329 329 332 331 325 323 327 331 336 339 338 338 339 339 338 337 336 335 334 333 332
365 363 360 359 357 355 353 352 349 347 346 347 347 341 335 334 328 322 324 330 333 332 331 332 331 326 322 326 332 336 338 337 338 340 339 337 336 336 335 334 334 334
364 362 360 358 356 355 353 351 348 346 346 346 345 340 335 332 326 324 331 335 334 333 332 331 330 326 324 326 329 330 332 335 338 339 338 337 337 336 336 336 334 334
362 361 360 357 356 355 354 352 348 345 346 347 344 339 335 331 327 330 336 335 332 333 334 332 330 326 324 324 325 326 328 332 336 337 337 337 337 336 336 336 335 336
361 360 359 357 356 354 353 351 347 345 345 345 343 340 334 330 330 333 334 331 331 335 336 335 333 329 325 325 326 327 328 330 334 337 336 336 338 338 338 338 339 340
362 360 358 357 355 352 351 349 347 345 343 342 342 341 336 333 334 333 330 329 331 334 334 334 335 333 331 331 329 327 327 331 333 335 336 337 338 340 340 341 341 341
362 359 357 357 353 351 350 349 347 345 342 340 341 340 338 336 335 334 332 332 333 333 332 333 334 334 334 334 331 327 328 330 332 335 337 338 338 340 341 341 341 340
361 358 356 356 353 350 349 348 346 344 341 340 340 338 337 336 335 334 334 334 334 333 333 333 333 334 335 335 332 330 328 329 332 335 337 338 339 340 341 340 339 339
359 357 356 355 352 350 348 347 345 343 341 340 338 336 334 333 332 332 332 333 334 334 335 335 335 335 335 334 332 329 327 330 334 337 338 339 340 340 339 338 335 333
356 354 355 354 352 350 348 346 345 342 340 339 337 335 334 333 332 332 332 334 336 336 336 336 335 335 336 335 333 328 327 332 337 339 340 341 340 338 336 333 330 327
353 352 353 353 352 349 347 346 345 342 340 337 335 335 335 334 334 334 334 336 336 336 336 335 335 335 336 336 336 333 331 333 338 341 341 339 337 335 333 330 327 326
351 350 351 352 351 349 347 345 344 342 339 337 335 335 335 335 336 336 336 337 337 337 336 336 336 337 337 337 338 336 334 335 338 340 338 335 332 332 331 330 328 328
Wind_Speed
24 23 22 21 21 20 18 17 16 15 15 14 13 13 14 14 14 14 13 11 10 10 10 9 8 8 7 6 5 5 4 4 4 4 4 4 3 4 4 5 5 6
25 23 21 20 20 20 18 18 17 15 14 14 14 13 13 14 15 14 13 12 11 11 10 10 9 8 8 7 6 6 6 5 5 5 5 5 5 5 6 6 7 7
25 23 22 21 20 20 19 18 17 16 15 15 15 15 14 15 15 14 13 13 12 11 11 10 10 10 9 8 7 7 7 6 6 6 6 6 6 6 7 7 8 8
25 24 23 22 21 20 19 18 18 18 17 16 16 16 15 14 14 14 14 13 12 11 11 11 11 11 10 8 8 8 7 7 7 7 7 7 7 8 8 8 8 9
25 24 23 22 21 20 20 20 20 19 18 17 16 16 15 15 15 15 14 14 12 11 10 11 12 11 9 9 9 8 8 7 7 8 8 8 8 8 8 8 8 9
24 24 24 23 22 22 22 23 21 20 19 18 17 18 17 17 16 15 15 15 14 13 11 12 12 11 11 10 10 10 10 9 8 8 9 9 8 8 8 8 9 9
24 25 25 24 23 24 24 23 22 23 24 21 20 21 20 18 17 17 17 17 17 17 17 16 15 15 14 13 12 12 11 10 9 9 9 9 9 10 10 10 10 11
25 25 25 24 24 24 24 24 25 27 27 23 21 21 20 19 19 20 21 21 21 20 21 22 20 18 17 15 14 14 13 11 10 10 10 11 11 11 12 12 12 13
24 24 25 25 25 25 26 26 24 25 27 26 22 21 22 24 23 24 25 25 22 21 24 25 23 20 18 17 17 16 14 13 11 11 12 12 12 13 13 13 13 14
24 25 25 26 26 26 28 28 24 23 27 28 23 22 26 28 26 26 28 27 24 24 26 27 24 23 21 19 18 17 16 14 13 13 13 14 14 14 14 14 14 14
26 26 26 28 28 26 27 29 26 24 27 28 26 25 28 29 28 28 30 29 28 27 28 28 26 25 24 20 18 18 17 16 15 15 15 15 14 15 15 15 14 14
27 27 27 29 28 26 26 28 27 26 27 29 28 28 29 30 30 32 33 32 31 30 29 29 27 26 25 22 18 18 19 19 17 16 15 15 15 15 16 16 15 15
27 27 27 27 26 26 26 28 28 27 27 28 28 29 31 30 30 34 35 34 34 32 31 30 28 26 25 22 20 20 21 20 17 16 16 15 16 16 16 16 16 15
25 25 24 23 22 23 24 27 27 25 24 26 29 32 33 32 35 39 38 37 36 33 31 30 29 27 25 24 23 22 20 18 16 16 16 16 16 16 16 17 16 15
21 21 20 20 21 21 24 25 24 25 25 29 34 36 35 35 38 40 38 38 37 33 31 31 30 29 28 25 23 20 18 18 18 17 17 17 16 16 17 17 16 16
19 20 20 22 22 23 24 24 25 29 31 35 39 40 40 40 40 40 39 37 33 29 29 30 29 29 28 25 23 19 17 17 18 17 17 16 16 16 17 16 16 16
19 19 20 22 23 24 24 24 27 33 36 37 40 43 43 41 41 39 33 28 26 26 27 28 29 28 26 26 26 23 19 18 17 16 15 15 16 17 16 16 16 16
19 18 18 21 23 24 24 24 28 36 39 39 40 43 44 41 38 34 27 24 25 24 24 25 27 26 24 26 27 24 21 21 18 16 15 14 15 16 16 15 15 14
19 18 18 20 22 22 22 23 27 35 41 37 30 33 41 41 33 27 25 26 24 20 19 19 20 22 25 27 26 22 21 21 19 16 15 14 15 15 15 15 14 13
18 17 18 19 20 20 21 22 25 32 40 37 26 25 33 34 27 21 22 23 22 20 20 18 16 18 24 26 25 22 20 21 20 18 16 15 15 15 14 14 13 12
16 16 16 16 19 22 22 22 24 28 33 33 27 24 24 23 20 19 19 20 20 19 19 19 18 20 23 24 23 22 21 22 21 19 17 16 16 15 14 13 12 11
14 15 15 16 20 23 22 21 23 24 26 25 24 24 22 17 16 17 18 17 18 18 18 19 20 21 22 22 22 22 22 23 21 19 17 16 15 13 12 10 9 8
13 14 14 16 19 23 23 20 21 23 24 23 24 26 23 18 17 17 17 17 17 18 20 21 21 20 19 20 20 21 22 22 19 17 16 16 13 10 9 9 8 7
12 13 14 15 18 22 23 20 21 23 23 22 24 25 22 19 19 17 17 18 20 22 23 23 22 19 18 19 19 20 22 21 17 16 15 13 9 7 7 8 9 11
11 12 14 15 17 21 23 21 21 24 22 20 22 22 19 19 19 18 19 21 23 24 23 22 20 17 16 17 18 20 21 19 15 14 11 8 6 5 6 8 10 14
10 11 13 14 14 18 21 20 19 21 20 20 21 20 18 18 19 19 20 21 20 20 20 19 18 16 15 17 18 18 18 17 15 12 11 11 10 8 8 9 11 13
Wind_Direction
214 214 215 217 221 226 224 221 220 215 214 216 219 219 211 203 201 200 202 207 209 209 206 204 206 206 210 218 225 226 228 234 234 231 231 233 244 257 263 266 267 269
213 212 212 214 218 221 218 214 215 212 210 213 215 213 205 200 198 199 202 206 208 209 207 205 206 208 212 220 225 226 226 231 235 234 232 236 243 250 256 262 265 265
211 209 208 210 213 212 209 209 212 212 211 212 211 207 201 199 199 199 202 205 206 206 205 205 204 204 211 222 226 227 229 231 235 238 238 242 246 251 254 258 263 266
208 207 207 208 208 206 205 205 208 210 211 210 207 204 200 199 198 198 201 202 203 204 205 205 203 200 206 218 225 228 231 232 233 238 243 247 249 251 255 257 259 264
205 206 206 205 205 202 202 207 210 208 206 205 203 200 197 195 195 196 198 199 202 205 205 205 203 203 205 210 218 224 228 230 230 233 241 246 250 252 253 256 257 261
202 203 203 203 201 200 204 210 209 203 201 200 196 195 195 194 195 195 197 199 199 198 198 202 203 206 207 204 211 221 222 225 227 230 239 245 251 255 256 257 260 262
200 200 202 201 200 203 208 208 205 206 206 200 194 197 196 192 191 195 200 201 198 194 195 198 200 206 209 203 208 220 220 220 225 230 240 247 251 257 260 262 264 263
199 199 200 200 200 202 204 205 210 213 208 199 195 197 194 189 189 195 202 204 202 200 197 197 200 206 210 207 208 217 219 217 222 229 239 247 252 257 262 264 265 263
198 197 199 199 200 200 201 206 210 207 205 203 196 193 195 197 197 199 205 207 206 205 203 201 202 204 209 213 213 214 215 216 220 227 238 246 252 258 261 264 265 262
196 197 199 200 201 201 202 205 203 198 204 205 195 192 201 204 202 204 208 207 206 209 209 207 203 199 202 212 220 219 216 217 221 228 238 246 253 260 261 261 261 259
197 198 199 201 203 202 200 201 200 196 199 199 192 192 199 201 202 205 207 208 210 212 213 210 205 199 197 205 220 226 222 222 225 231 239 246 253 259 258 256 254 253
197 199 202 204 204 201 197 196 198 195 192 193 192 192 197 200 203 205 206 209 211 211 212 211 207 202 200 204 216 228 231 233 234 234 240 247 253 257 254 250 248 247
199 201 204 205 202 200 195 195 199 195 189 189 191 193 197 199 200 204 207 211 211 207 207 210 208 207 205 208 219 233 239 240 238 237 242 249 254 255 250 246 246 246
201 203 204 204 201 198 197 198 197 188 181 188 195 198 198 197 200 205 207 210 211 206 203 206 208 210 210 212 222 234 238 238 238 239 245 252 254 252 247 245 247 249
202 203 205 208 205 198 196 196 185 174 182 203 209 205 201 200 204 207 206 208 211 208 205 206 208 212 215 217 223 229 232 237 242 243 245 250 251 247 244 244 246 250
205 205 207 210 208 201 197 191 180 181 198 216 216 208 204 205 207 208 207 206 207 208 208 209 210 213 217 221 226 230 231 238 245 244 244 246 245 243 243 243 244 248
210 208 206 207 205 203 199 191 187 193 205 217 217 209 207 208 208 208 204 198 200 207 213 215 215 216 219 225 233 239 242 245 247 245 244 245 243 242 242 243 246 249
213 208 205 205 204 205 203 195 193 199 206 214 215 210 208 207 207 205 198 191 197 208 215 218 220 220 223 231 238 244 249 253 251 245 245 246 242 241 242 243 249 253
211 208 206 207 207 207 204 195 192 199 206 210 210 208 208 206 202 200 196 195 200 208 214 219 222 225 231 238 242 246 251 255 251 241 242 246 242 241 242 244 251 256
203 204 207 207 204 204 201 195 194 199 205 207 205 206 206 201 194 190 192 199 207 213 219 223 225 231 238 242 245 248 250 253 249 239 239 245 243 244 247 249 252 255
194 201 207 200 196 200 201 201 201 199 201 205 206 205 200 191 186 186 190 201 210 215 222 226 227 232 239 243 246 249 249 253 251 241 238 243 245 248 252 253 253 252
190 199 203 194 196 201 202 204 206 200 197 201 203 199 193 185 186 190 193 202 210 216 223 228 230 233 236 241 248 250 249 252 251 241 238 245 248 249 251 252 254 256
190 200 198 190 196 202 201 204 206 200 197 200 200 196 192 191 193 198 204 210 214 218 224 231 234 234 234 242 250 250 247 247 242 233 236 243 242 242 243 241 249 263
191 204 200 190 195 202 203 206 205 199 196 198 196 192 191 194 197 202 212 219 221 223 226 233 235 233 235 246 253 250 245 239 230 227 233 235 225 218 226 235 253 269
189 202 202 196 198 202 205 207 205 201 197 194 190 186 186 194 199 205 215 223 228 229 230 232 234 234 238 246 251 248 241 230 222 223 221 206 192 202 229 251 267 275
183 196 202 200 198 199 204 207 204 199 195 190 188 189 194 200 203 210 219 225 230 231 228 226 229 235 242 247 247 245 236 220 213 211 195 185 196 214 229 248 260 266